Location: Montreal
(45.5000°N, 73.5833°W)
Time: 12:10:42
(UTC-04:00)

ISS - Pass Details

Date: 09 October 2017
Orbit: 401 x 408 km, 51.6° (Epoch: 20 October)

Event Time Altitude Azimuth Distance (km) Brightness Sun altitude
Rises 20:33:26 0° 298° (WNW) 2,329 1.4 -24.2°
Reaches altitude 10° 20:35:31 10° 297° (WNW) 1,468 0.0 -24.5°
Enters shadow 20:37:27 32° 292° (WNW) 718 -2.0 -24.8°
